Flag for Brazil Weather past 2 weeks in Florianópolis, Santa Catarina, Brazil

Now
77 °F

Scattered clouds.


Feels Like: 79 °F
Forecast: 66 / 73 °F
Wind: 10 mph from Southwest

Location: Florianopolis Aeroporto

Current Time: Apr 25, 2015 at 1:49:07 PM

Latest Report: Apr 25, 2015 at 1:00 PM


Visibility: N/A

Pressure: 30.12 "Hg

Humidity: 57%

Dew point: 61 °F

Location of FlorianópolisLocation

Historic Weather in Florianópolis — Graph

°F

Florianópolis temperature yesterday

Maximum temperature yesterday: 82 °F (at 1:00 PM)
Minimum temperature yesterday: 66 °F (at 2:00 AM)
Average temperature yesterday: 72 °F

Past Weeks' High & Low Weather Summary

 TemperatureHumidityPressure
High84 °F (Apr 10, 2:00 PM)94% (Apr 12, 1:00 AM)30.18 "Hg (Apr 12, 1:00 AM)
Low66 °F (Apr 22, 6:00 PM)48% (Apr 10, 2:00 PM)29.77 "Hg (Apr 20, 2:00 PM)
Average74 °F81%30.01 "Hg
* Reported Apr 10 12:00 Noon — Apr 25 12:00 Noon, Florianópolis, Weather by CustomWeather, © 2015

Note: Actual official high and low records may vary slightly from our data, if they occured in-between our weather recording intervals... More about our weather records

Advertising

Florianópolis weather history for previous 24 hours

 ConditionsComfort  
Time TempWeatherWind HumidityBarometerVisibility
12:00 PM
Sat, Apr 25
77 °FScattered clouds.12 mph57%30.15 "HgN/A
11:00 AM75 °FSunny.12 mph57%30.15 "Hg10 mi
10:00 AM73 °FSunny.8 mph65%30.15 "Hg10 mi
9:00 AM72 °FSunny.7 mph65%30.15 "Hg10 mi
8:00 AM70 °FSunny.6 mph69%30.12 "Hg10 mi
7:00 AM68 °FSunny.6 mph73%30.09 "Hg10 mi
6:00 AM68 °FSunny.8 mph73%30.07 "Hg10 mi
5:00 AM66 °FPassing clouds.6 mph78%30.07 "HgN/A
4:00 AM68 °FPassing clouds.10 mph73%30.07 "HgN/A
3:00 AM70 °FPassing clouds.9 mph73%30.07 "HgN/A
2:00 AM70 °FPassing clouds.10 mph73%30.09 "HgN/A
1:00 AM70 °FPassing clouds.13 mph78%30.07 "HgN/A
12:00 AM70 °FPassing clouds.14 mph78%30.09 "HgN/A
11:00 PM
Fri, Apr 24
72 °FPassing clouds.13 mph73%30.09 "HgN/A
10:00 PM72 °FPassing clouds.14 mph73%30.09 "HgN/A
9:00 PM72 °FPassing clouds.12 mph73%30.07 "HgN/A
8:00 PM72 °FPassing clouds.9 mph78%30.07 "HgN/A
7:00 PM72 °FPassing clouds.6 mph78%30.04 "HgN/A
6:00 PM73 °FPassing clouds.10 mph74%30.04 "HgN/A
5:00 PM75 °FPassing clouds.13 mph74%30.04 "HgN/A
4:00 PM77 °FScattered clouds.15 mph61%30.01 "HgN/A
3:00 PM79 °FScattered clouds.13 mph61%30.01 "HgN/A
2:00 PM79 °FScattered clouds.13 mph65%30.01 "HgN/A
1:00 PM82 °FScattered clouds.3 mph58%30.01 "HgN/A
Weather by CustomWeather, © 2015

See weather overviewHow to use our weather pages